TimeCST,TemperatureF,Dew PointF,Humidity,Sea Level PressureIn,VisibilityMPH,Wind Direction,Wind SpeedMPH,Gust SpeedMPH,PrecipitationIn,Events,Conditions,WindDirDegrees,DateUTC
12:53 AM,52.0,39.9,63,30.20,10.0,ENE,5.8,-,N/A,,Clear,60,2013-11-09 06:53:00
1:53 AM,51.1,41.0,68,30.20,10.0,NE,5.8,-,N/A,,Clear,40,2013-11-09 07:53:00
2:53 AM,51.1,41.0,68,30.19,10.0,ENE,5.8,-,N/A,,Clear,60,2013-11-09 08:53:00
3:53 AM,51.1,42.1,71,30.19,10.0,ENE,5.8,-,N/A,,Clear,60,2013-11-09 09:53:00
4:53 AM,52.0,41.0,66,30.20,10.0,East,6.9,-,N/A,,Clear,80,2013-11-09 10:53:00
5:53 AM,52.0,39.9,63,30.22,10.0,ENE,6.9,-,N/A,,Clear,60,2013-11-09 11:53:00
6:53 AM,53.1,39.9,61,30.23,10.0,East,6.9,-,N/A,,Clear,80,2013-11-09 12:53:00
7:53 AM,57.0,42.1,57,30.25,10.0,East,8.1,-,N/A,,Clear,80,2013-11-09 13:53:00
8:53 AM,61.0,44.1,54,30.26,10.0,NNE,6.9,-,N/A,,Clear,30,2013-11-09 14:53:00
9:53 AM,64.0,46.9,54,30.25,10.0,ENE,3.5,-,N/A,,Clear,60,2013-11-09 15:53:00
10:53 AM,68.0,50.0,52,30.24,10.0,Variable,5.8,-,N/A,,Clear,0,2013-11-09 16:53:00
11:53 AM,70.0,51.1,51,30.22,10.0,North,3.5,-,N/A,,Clear,350,2013-11-09 17:53:00
12:53 PM,72.0,53.1,51,30.20,10.0,NNE,4.6,-,N/A,,Clear,30,2013-11-09 18:53:00
1:53 PM,73.0,53.1,49,30.18,10.0,ENE,5.8,-,N/A,,Clear,60,2013-11-09 19:53:00
2:53 PM,71.1,53.1,53,30.17,10.0,East,4.6,-,N/A,,Clear,100,2013-11-09 20:53:00
3:53 PM,71.1,53.1,53,30.19,10.0,ESE,3.5,-,N/A,,Clear,110,2013-11-09 21:53:00
4:53 PM,66.9,55.9,68,30.20,10.0,Calm,Calm,-,N/A,,Clear,0,2013-11-09 22:53:00
5:53 PM,62.1,55.9,80,30.20,10.0,Calm,Calm,-,N/A,,Clear,0,2013-11-09 23:53:00
6:53 PM,60.1,55.9,86,30.20,10.0,Calm,Calm,-,N/A,,Clear,0,2013-11-10 00:53:00
7:53 PM,60.1,55.9,86,30.21,10.0,NNE,4.6,-,N/A,,Clear,20,2013-11-10 01:53:00
8:53 PM,61.0,55.9,83,30.22,10.0,North,3.5,-,N/A,,Clear,10,2013-11-10 02:53:00
9:53 PM,60.1,54.0,80,30.22,10.0,NNE,4.6,-,N/A,,Clear,20,2013-11-10 03:53:00
10:53 PM,59.0,53.1,81,30.21,10.0,NNE,5.8,-,N/A,,Clear,20,2013-11-10 04:53:00
11:53 PM,60.1,52.0,75,30.20,10.0,NE,4.6,-,N/A,,Clear,50,2013-11-10 05:53:00